Regional Weather Roundup
Issued by NWS Cleveland, OH

Home | Current Version | Previous Version | Text Only | Print | Product List | Glossary Off
Versions: 1 2 3 4 5 6 7 8 9 10 11 12 13 14 15 16 17 18 19 20 21 22 23 24 25 26 27 28 29 30 31 32 33 34 35 36 37 38 39 40 41 42 43 44 45 46 47 48 49 50

000
ASUS41 KCLE 241010
RWRCLE
OHIO REGIONAL WEATHER ROUNDUP
NATIONAL WEATHER SERVICE CLEVELAND, OH
600 AM EDT TUE OCT 24 2017

NOTE: "FAIR" INDICATES FEW OR NO CLOUDS BELOW 12,000 FEET WITH NO
SIGNIFICANT WEATHER AND/OR OBSTRUCTIONS TO VISIBILITY.

OHZ001>008-015>018-024>027-034-035-043-044-241100-
   NORTHWEST OHIO

CITY           SKY/WX    TMP DP  RH WIND       PRES   REMARKS
DEFIANCE       LGT RAIN  49  46  90 S10       29.55F
FINDLAY        LGT RAIN  49  45  86 S16       29.58F
TOLEDO EXPRESS CLOUDY    50  49  96 S12       29.55F
TOLEDO EXEC    CLOUDY    49  46  90 S14       29.58S
LIMA           LGT RAIN  48  47  96 S13       29.58F
$$

OHZ009>014-019>023-028>033-038-089-241100-
   NORTHEAST OHIO

CITY           SKY/WX    TMP DP  RH WIND       PRES   REMARKS
CLE-HOPKINS    PTCLDY    48  45  89 S8        29.64S
CLE-LAKEFRONT  PTCLDY    50  44  80 S12       29.61S
CUY CO. ARPT   NOT AVBL
LORAIN-ELYRIA  CLEAR     47  41  80 SW12      29.63R
ASHTABULA      CLOUDY    51  49  92 SW13      29.63R
AKRON-CANTON   PTCLDY    49  45  86 SW9       29.66R
WOOSTER        CLEAR     46  44  93 SW7       29.66R
MANSFIELD      PTCLDY    46  45  96 S10       29.63F
YOUNGSTOWN     LGT RAIN  50  48  93 SW9       29.65R
$$

OHZ042-051>053-060>062-070>072-077>081-241100-
  SOUTHWEST OHIO

CITY           SKY/WX    TMP DP  RH WIND       PRES   REMARKS
CINC-COVINGTON DRIZZLE   48  48 100 SW8       29.69S
CINC-LUNKEN    CLOUDY    49  48  97 SW3       29.71S
HAMILTON       CLOUDY    49  48  97 VRB6      29.69S
DAYTON         CLOUDY    48  48 100 S17       29.64F
WRIGHT-PAT AFB CLOUDY    48  48 100 S13       29.64F
DAYTON GENERAL LGT RAIN  47  46  97 S13       29.66S
WILMINGTON     LGT RAIN  46  46 100 S12       29.68F
$$

OHZ036-037-039>041-045>050-054>059-063>069-073>076-082>088-241100-
  CENTRAL AND SOUTHEAST OHIO

CITY           SKY/WX    TMP DP  RH WIND       PRES   REMARKS
COLUMBUS       CLOUDY    49  46  90 S12G21    29.68F
OSU AIRPORT    LGT RAIN  48  46  93 S13       29.67F
BOLTON FIELD   RAIN      47  45  92 S12G17    29.69R
RICKENBACK AFB CLOUDY    47  46  95 SW12      29.69F
NEWARK         PTCLDY    47  44  90 S7        29.68F
MARION         CLOUDY    48  44  86 S17G24    29.63F
LANCASTER      PTCLDY    47  32  56 S5        29.70F
ZANESVILLE     CLEAR     46  43  89 S6        29.70S
NEW PHILLY     NOT AVBL
$$



USA.gov is the U.S. government's official web portal to all federal, state and local government web resources and services.